Theta_e
319 320 320 316 310 308 308 307 306 306 306 306 306 306 306 306 306 306 306 306 306 306 306 306 306 306 306 306 306 306 306 306 306 306 306 306 305 305 305 305 304 304
318 320 322 317 311 309 309 308 307 307 307 307 307 306 306 306 306 306 306 306 306 306 306 306 306 306 306 306 306 306 306 306 305 305 305 305 305 304 304 304 304 303
315 318 321 318 313 310 311 311 310 309 309 308 308 308 307 307 307 306 307 306 306 306 306 306 306 306 306 306 306 306 306 305 305 305 305 304 304 304 303 304 303 303
314 316 320 318 315 313 312 313 313 313 313 310 309 309 308 308 307 307 307 307 307 307 307 307 306 306 306 306 306 306 306 305 305 305 305 305 305 305 305 305 304 305
315 317 319 318 316 315 314 315 315 315 315 314 312 311 310 309 308 308 308 308 307 307 307 307 307 306 306 306 306 306 306 306 306 307 307 307 307 307 307 307 307 307
315 317 319 319 317 316 316 316 317 316 316 316 314 313 312 310 310 309 309 309 309 308 308 308 307 307 307 307 307 307 307 307 307 307 307 308 308 308 308 308 308 308
316 317 319 319 318 317 316 317 318 318 317 317 316 314 314 313 313 311 310 310 311 310 309 309 309 309 309 308 308 308 308 308 308 308 308 308 308 308 308 308 308 308
316 317 319 319 318 318 317 318 318 318 318 318 317 317 316 316 316 315 314 315 314 313 312 312 312 312 311 311 310 310 309 309 309 309 308 308 308 308 308 308 308 308
316 318 320 320 318 318 318 318 319 319 318 318 318 318 318 318 318 317 317 317 317 316 316 316 316 316 315 315 314 314 313 312 311 310 309 309 309 309 309 309 309 309
317 319 321 320 318 318 318 319 319 319 319 319 319 318 318 318 318 318 318 318 317 317 317 317 317 317 317 317 317 317 317 316 315 314 312 311 310 310 309 309 309 309
320 321 320 319 318 319 319 319 319 319 319 319 319 318 318 318 318 318 318 318 317 317 316 316 316 316 316 317 317 317 317 318 318 318 316 315 314 313 311 310 310 309
322 322 320 319 318 318 319 319 319 319 319 319 319 318 318 318 318 318 318 318 318 317 317 316 316 317 317 317 317 317 318 318 318 318 318 318 317 316 314 313 312 311
321 321 321 321 320 320 320 320 320 319 319 319 318 319 318 318 318 318 318 319 318 318 317 317 316 317 318 317 317 318 318 318 318 318 319 319 318 318 316 315 314 313
321 321 320 320 320 320 320 320 320 319 319 319 319 319 319 318 318 318 319 318 318 318 317 317 317 317 317 316 316 318 319 320 319 319 319 319 319 318 317 316 315 314
322 321 320 319 319 319 318 318 318 318 318 318 318 318 318 318 319 318 318 318 319 319 318 318 318 317 316 315 316 316 317 317 319 319 319 319 319 318 318 317 316 316
320 320 318 318 319 319 318 318 318 318 318 318 320 320 319 320 319 318 318 318 318 318 318 318 317 317 316 316 316 316 315 315 317 319 319 319 319 318 318 317 317 316
317 318 319 319 319 317 317 318 318 318 318 319 320 320 319 318 317 316 316 317 317 317 317 317 316 316 316 316 316 317 317 318 318 319 319 319 319 318 318 318 318 317
314 316 317 316 315 313 312 314 315 315 315 315 315 316 314 313 313 313 313 315 315 315 315 316 316 317 318 318 318 318 319 319 319 319 319 319 319 318 318 318 317 316
311 311 311 311 310 310 310 310 310 310 310 310 311 311 311 310 310 311 312 313 313 314 314 315 317 317 317 318 319 320 321 321 321 320 320 319 318 318 318 317 317 316
308 308 308 308 307 307 306 305 306 306 307 307 308 309 310 311 310 311 312 314 314 313 312 311 311 310 309 309 310 313 316 319 319 320 320 319 318 318 317 316 315 315
309 309 308 308 308 307 306 305 305 306 307 308 308 310 312 313 313 314 316 317 317 315 312 309 307 306 304 304 305 307 310 313 316 318 319 319 318 317 316 314 314 313
308 308 308 308 307 306 305 305 305 306 308 308 308 308 310 312 313 314 316 317 317 316 313 309 307 305 305 305 307 308 309 310 313 315 317 317 317 316 315 314 313 312
309 309 309 308 306 305 304 303 303 304 305 305 305 305 305 306 308 310 311 312 313 314 313 310 307 306 307 307 307 307 307 308 311 313 315 315 315 315 314 313 312 311
308 310 310 309 308 307 305 304 303 303 303 303 303 303 303 305 306 306 305 306 308 310 311 311 310 309 309 309 309 308 308 309 310 312 314 314 314 314 313 312 311 310
308 310 310 309 309 308 307 306 305 304 303 303 302 302 302 303 305 305 305 306 306 307 308 308 309 309 309 310 310 309 310 311 312 313 313 313 312 312 312 311 311 310
308 309 309 309 309 308 308 307 305 304 304 304 303 303 302 302 303 305 307 309 308 307 306 306 307 309 310 311 311 311 311 312 313 313 312 311 311 311 310 310 309 308
Wind_Speed
18 19 18 16 16 15 14 16 16 15 16 15 14 14 13 12 12 11 10 9 7 7 6 7 7 7 7 8 7 7 7 7 7 7 7 6 5 5 5 4 4 4
18 21 21 18 18 17 16 18 18 17 17 16 15 15 14 13 12 12 11 10 9 7 7 7 7 7 6 6 6 5 5 5 5 6 6 6 6 6 5 4 4 3
20 23 25 22 19 18 18 19 19 18 18 17 16 15 15 14 13 12 11 10 9 8 7 7 8 8 7 6 5 5 5 5 6 6 6 6 6 6 5 5 4 3
23 25 26 25 21 19 19 20 20 19 18 18 17 16 15 14 13 13 12 11 9 8 7 7 7 7 7 7 6 5 6 6 6 6 6 6 6 5 5 5 5 4
26 27 28 28 24 20 21 21 20 19 18 17 17 17 15 14 13 12 11 11 10 8 8 7 6 6 7 7 6 6 6 6 6 5 5 5 5 4 3 4 3 3
28 28 30 31 27 23 22 22 20 19 18 16 16 16 16 15 13 12 11 10 9 8 8 7 6 5 5 5 5 5 5 5 4 4 3 2 2 1 1 1 1 1
31 30 31 33 30 25 23 22 21 20 19 16 15 15 16 16 14 13 12 10 9 8 8 7 6 5 4 4 5 4 4 4 4 4 3 3 3 3 2 2 2 2
31 30 29 32 33 28 25 24 22 22 20 18 16 14 14 13 12 13 12 11 9 8 7 6 6 5 4 4 4 4 4 5 5 5 5 5 5 5 5 4 4 4
31 30 28 31 32 28 27 27 25 24 23 20 18 16 14 13 11 11 12 12 11 10 8 7 5 4 3 3 4 4 4 5 6 6 7 7 7 6 6 6 5 5
30 30 31 33 34 31 30 30 28 27 26 23 20 18 17 15 13 12 11 11 11 10 9 7 6 6 5 5 5 6 6 6 7 8 8 9 9 8 8 8 7 7
29 30 33 35 34 32 32 32 31 29 27 24 22 20 19 17 16 15 13 12 10 9 8 8 9 10 9 9 8 8 9 10 10 9 10 10 10 11 11 10 10 10
30 29 31 33 34 33 32 32 32 31 30 27 24 22 20 19 18 16 15 14 13 12 11 11 12 13 12 11 11 11 12 13 13 13 13 12 12 13 13 13 12 12
30 29 26 25 27 28 28 30 30 29 29 28 26 24 21 20 18 17 17 16 15 14 13 14 15 14 13 13 13 14 14 16 16 17 17 16 15 15 15 15 14 14
28 29 23 17 18 23 26 28 29 27 24 23 24 23 22 21 19 18 19 18 17 16 16 17 17 16 16 17 18 17 17 19 20 20 20 19 18 17 17 17 17 17
23 23 22 20 20 22 22 22 24 27 25 23 23 23 23 21 19 19 19 18 18 17 17 17 17 19 21 22 20 17 16 18 21 23 23 22 21 20 19 20 20 20
21 20 21 23 23 21 18 17 19 22 24 23 23 22 22 21 20 21 22 22 22 21 21 21 22 24 26 26 24 20 17 17 21 24 25 24 24 23 22 22 23 23
14 15 17 19 17 14 12 12 13 15 16 17 17 17 18 18 18 19 21 22 23 23 23 23 23 24 24 25 25 24 23 23 24 24 24 24 25 25 26 25 25 25
13 14 15 15 14 12 11 11 12 13 13 14 14 15 15 16 17 18 18 18 19 20 20 20 20 20 20 20 21 21 23 24 25 26 26 25 26 27 28 28 27 27
12 12 13 14 13 13 13 13 13 14 14 14 14 14 15 15 15 16 16 15 15 16 17 18 18 19 19 19 19 19 20 21 23 23 23 23 25 27 29 29 29 28
10 11 12 13 13 13 12 12 12 13 13 12 12 12 13 12 12 11 11 10 10 11 12 15 17 17 18 17 17 18 18 20 21 20 19 20 23 27 29 30 29 29
11 11 12 12 12 12 11 11 11 11 11 11 10 10 11 11 10 10 9 8 9 10 12 14 15 15 16 15 15 15 15 16 17 18 18 18 20 24 28 28 27 27
10 11 12 12 11 11 11 11 12 12 12 10 9 10 11 11 12 13 12 11 11 12 14 14 14 13 13 13 14 14 14 13 12 13 14 14 15 19 24 26 26 25
8 11 12 10 9 8 8 9 9 10 11 10 9 9 9 10 11 13 13 14 15 15 15 14 13 12 12 13 13 14 13 13 12 10 9 10 12 16 21 23 24 23
9 11 12 11 9 7 6 5 3 5 7 8 8 7 8 8 9 10 11 13 15 16 16 15 15 15 15 15 15 14 12 12 11 9 9 9 12 15 18 20 21 21
12 13 13 11 9 8 7 6 5 5 5 5 5 5 6 8 9 10 11 12 13 14 15 16 16 16 17 17 16 14 12 11 10 9 9 10 12 15 18 20 21 21
10 12 12 10 9 8 8 8 10 9 8 7 7 7 8 9 10 11 13 13 13 14 14 15 16 16 17 17 16 14 12 11 9 9 10 11 13 15 17 19 20 21
Wind_Direction
199 211 218 219 210 196 181 170 162 153 146 139 137 141 146 150 152 153 154 152 149 144 135 127 119 118 120 115 112 111 110 114 118 121 122 124 129 130 136 145 150 156
196 213 222 222 213 201 182 172 168 158 149 142 137 137 140 146 149 153 156 155 153 151 142 133 126 124 124 118 111 106 101 103 108 113 117 119 122 127 133 136 139 144
192 209 220 222 216 204 186 175 170 161 152 148 143 138 137 140 142 144 148 150 150 148 144 136 131 129 124 114 107 97 91 91 93 95 100 104 109 114 119 118 116 120
194 206 215 219 219 211 195 181 173 168 163 157 152 147 143 141 141 141 141 143 144 144 142 136 131 126 121 114 103 92 88 87 85 85 86 87 88 89 96 101 106 111
200 207 213 215 218 218 205 190 180 177 173 165 160 155 151 147 145 142 140 141 141 139 139 138 136 131 128 125 117 110 104 98 95 94 88 82 74 65 65 75 90 105
200 207 213 212 215 218 212 199 189 186 182 177 171 162 156 155 153 149 146 144 143 143 143 143 146 147 146 144 142 139 134 130 132 134 127 117 105 79 32 15 14 66
201 206 212 212 213 217 215 206 198 196 192 188 185 175 166 163 161 159 156 152 151 152 153 153 157 164 167 167 172 178 180 185 195 198 195 202 212 218 228 246 260 258
207 211 215 213 212 216 217 210 204 204 201 197 197 191 179 171 165 163 162 163 163 164 169 171 172 183 194 198 199 208 218 226 234 232 228 233 237 234 234 241 249 249
213 215 218 215 215 221 222 215 209 208 207 205 202 198 191 185 178 173 172 173 175 177 181 184 189 201 222 241 242 240 244 246 250 252 249 249 250 246 242 248 256 257
216 216 217 214 214 221 223 218 214 212 211 210 208 204 199 193 189 189 189 191 195 197 200 211 227 238 247 262 270 273 271 264 261 261 263 264 267 266 262 262 266 268
223 219 217 214 215 218 218 217 215 213 213 213 211 210 206 202 198 198 202 209 214 219 230 244 250 250 253 260 270 279 283 282 278 273 270 269 270 272 272 273 273 273
225 221 219 218 218 218 217 217 214 211 213 214 216 215 212 211 211 212 215 220 225 234 249 263 265 259 257 261 266 272 278 281 282 280 278 275 272 271 271 271 272 272
221 220 218 215 211 208 210 211 209 209 211 212 215 217 218 221 224 230 235 234 234 241 256 270 269 263 265 271 271 271 274 275 278 279 278 277 276 274 272 271 271 270
219 218 217 215 207 201 202 203 203 207 212 212 215 219 223 228 235 243 245 242 241 246 257 264 261 262 273 277 273 271 269 270 274 276 275 276 276 274 272 273 273 273
227 221 221 231 231 221 216 214 212 214 216 217 223 226 228 234 243 245 240 237 238 240 244 246 248 260 273 274 269 267 267 269 272 272 271 273 273 273 272 271 272 274
231 231 230 235 239 238 236 235 228 224 222 224 230 232 232 235 239 237 233 233 235 236 240 243 248 258 266 266 264 263 262 265 268 269 268 269 269 269 269 270 272 275
199 208 211 216 223 224 218 212 211 214 218 224 227 226 225 227 228 230 233 236 237 241 245 247 248 251 254 257 259 259 258 260 264 267 268 269 267 265 267 269 271 271
165 177 185 193 201 199 191 189 192 199 208 215 217 216 218 223 226 228 231 233 236 239 242 243 244 246 249 253 255 257 258 260 262 264 265 266 265 263 265 267 266 264
171 181 187 194 200 200 197 196 197 203 209 212 214 217 221 224 227 228 228 229 232 235 239 243 247 250 254 256 256 255 257 259 261 263 265 264 262 262 263 262 261 259
194 195 196 197 198 194 192 193 195 198 202 204 206 212 218 224 228 228 232 240 246 251 252 251 251 254 258 261 261 259 257 258 260 263 265 264 261 259 257 254 253 253
206 203 200 199 197 194 195 198 200 203 208 212 214 217 225 235 242 243 242 249 261 269 268 263 263 265 267 269 271 271 269 265 262 261 263 264 261 258 253 247 245 244
212 211 204 197 194 196 198 199 202 208 215 221 226 229 235 242 248 251 253 253 257 264 266 266 267 268 267 267 270 274 278 277 271 265 266 267 263 257 251 243 238 237
209 213 208 205 205 201 190 182 184 193 202 210 219 227 235 242 246 249 252 253 256 260 263 265 266 266 266 269 272 276 277 279 281 280 278 273 264 257 250 242 238 241
220 216 211 215 226 231 216 200 193 197 202 206 214 223 234 245 249 252 254 255 256 259 262 266 270 273 278 284 289 289 284 281 283 286 284 275 264 258 252 248 248 251
222 215 215 221 232 238 234 244 272 268 236 224 232 244 250 252 253 257 262 263 263 262 264 266 270 275 281 288 296 300 294 285 281 278 274 270 263 260 258 257 257 257
204 206 215 224 232 237 241 259 276 274 261 259 271 279 284 282 272 264 262 264 267 268 268 269 270 274 279 285 293 298 293 283 274 268 266 266 263 261 261 260 259 257